TimeCST,TemperatureF,Dew PointF,Humidity,Sea Level PressureIn,VisibilityMPH,Wind Direction,Wind SpeedMPH,Gust SpeedMPH,PrecipitationIn,Events,Conditions,WindDirDegrees,DateUTC
12:52 AM,46.0,26.1,46,29.99,10.0,SW,17.3,25.3,N/A,,Clear,220,2014-02-22 06:52:00
1:52 AM,45.0,27.0,49,29.99,10.0,SW,17.3,-,N/A,,Clear,220,2014-02-22 07:52:00
2:52 AM,44.1,26.1,49,30.01,10.0,WSW,6.9,-,N/A,,Clear,240,2014-02-22 08:52:00
3:52 AM,41.0,26.1,55,30.02,10.0,SW,5.8,-,N/A,,Clear,220,2014-02-22 09:52:00
4:52 AM,37.9,26.1,62,30.03,10.0,SSW,8.1,-,N/A,,Clear,210,2014-02-22 10:52:00
5:52 AM,37.9,25.0,60,30.04,10.0,South,6.9,-,N/A,,Clear,190,2014-02-22 11:52:00
6:52 AM,36.0,26.1,67,30.04,10.0,South,6.9,-,N/A,,Clear,180,2014-02-22 12:52:00
7:52 AM,37.0,28.0,70,30.05,10.0,South,6.9,-,N/A,,Clear,180,2014-02-22 13:52:00
8:52 AM,46.0,30.9,56,30.06,10.0,SSW,6.9,-,N/A,,Clear,200,2014-02-22 14:52:00
9:52 AM,53.1,27.0,37,30.05,10.0,SW,11.5,-,N/A,,Clear,220,2014-02-22 15:52:00
10:52 AM,57.0,28.0,33,30.03,10.0,SSW,10.4,-,N/A,,Clear,210,2014-02-22 16:52:00
11:52 AM,61.0,28.0,29,30.00,10.0,WSW,8.1,-,N/A,,Clear,240,2014-02-22 17:52:00
12:52 PM,64.0,28.9,27,29.96,10.0,SW,15.0,20.7,N/A,,Clear,220,2014-02-22 18:52:00
1:52 PM,63.0,28.0,27,29.94,10.0,SSW,18.4,23.0,N/A,,Clear,200,2014-02-22 19:52:00
2:52 PM,61.0,28.9,30,29.91,10.0,South,17.3,24.2,N/A,,Clear,180,2014-02-22 20:52:00
3:52 PM,61.0,28.9,30,29.89,10.0,South,23.0,31.1,N/A,,Clear,190,2014-02-22 21:52:00
4:52 PM,57.9,27.0,31,29.89,10.0,South,17.3,-,N/A,,Clear,190,2014-02-22 22:52:00
5:52 PM,55.0,26.1,33,29.89,10.0,SSW,16.1,24.2,N/A,,Clear,200,2014-02-22 23:52:00
6:52 PM,48.9,28.9,46,29.90,10.0,SSW,12.7,-,N/A,,Clear,200,2014-02-23 00:52:00
7:52 PM,50.0,30.0,46,29.91,10.0,SSW,10.4,-,N/A,,Clear,210,2014-02-23 01:52:00
8:52 PM,46.9,32.0,56,29.96,10.0,North,11.5,-,N/A,,Clear,350,2014-02-23 02:52:00
9:52 PM,43.0,34.0,71,29.99,10.0,NE,11.5,-,N/A,,Mostly Cloudy,40,2014-02-23 03:52:00
10:52 PM,39.0,30.0,70,30.02,10.0,NNE,4.6,-,N/A,,Clear,30,2014-02-23 04:52:00
11:52 PM,37.9,30.0,73,30.04,10.0,NNE,6.9,-,N/A,,Clear,30,2014-02-23 05:52:00